tititudorancea.com
Station Historical Data
Daily Summary for October 17, 2018 Units:  Metric    English   Both
« Previous Day
Next Day »
Daily Weekly Monthly Yearly Custom
  High: Low: Average:
Temperature: -17.8 °C 11.9 °C 13.4 °C
Dew Point: -17.8 °C 10.5 °C 11.3 °C
Humidity: Humidity % 74 % 87 %
Wind Speed: 0 km/h 3.7 km/h 14 km/h
Wind Gust: 0 km/h - -
Wind:- - WNW
Pressure: 0 hPa 1009.4 hPa -
Precipitation: 1.19 mm    
Historical Graphs
 
 
Ararat weather Find more about Weather in Ararat, AU


 



 


Tabular Data for October 17, 2018
Time Temperature Dew Point Pressure Wind Wind Speed Wind Gust Humidity Rainfall Rate (Hourly)
-17.8 °C -17.8 °C 0 hPa Calm     Humidity % 0 mm
00:04 12.9 °C 11 °C 1011.1 hPa North 11.1 km/h 7.2 km/h 88 % 0 mm
00:09 12.9 °C 11 °C 1011.1 hPa North 11.1 km/h 7.2 km/h 88 % 0 mm
00:14 12.9 °C 10.9 °C 1011.1 hPa North 7.4 km/h 5 km/h 88 % 0 mm
00:19 12.9 °C 10.9 °C 1011.1 hPa North 7.4 km/h 5.1 km/h 88 % 0 mm
00:24 12.8 °C 10.8 °C 1011.1 hPa North 9.7 km/h 8.4 km/h 88 % 0 mm
00:29 12.8 °C 10.8 °C 1011.1 hPa North 16.7 km/h 13.2 km/h 88 % 0 mm
00:34 12.8 °C 10.9 °C 1011.1 hPa North 11.1 km/h 7.1 km/h 88 % 0 mm
00:39 12.8 °C 10.9 °C 1011.1 hPa North 16.7 km/h 7.4 km/h 88 % 0 mm
00:44 12.9 °C 10.9 °C 1011.1 hPa North 11.1 km/h 8.4 km/h 88 % 0 mm
00:49 12.9 °C 10.9 °C 1011.1 hPa North 5.6 km/h 6 km/h 88 % 0 mm
00:54 12.9 °C 11 °C 1011.1 hPa North 9.7 km/h 8.5 km/h 88 % 0 mm
00:59 12.9 °C 11 °C 1011.1 hPa North 13 km/h 9.8 km/h 88 % 0 mm
01:04 12.9 °C 11 °C 1011.1 hPa North 13 km/h 6.8 km/h 88 % 0 mm
01:09 12.9 °C 11 °C 1011.1 hPa North 11.1 km/h 7.7 km/h 88 % 0 mm
01:14 12.9 °C 10.9 °C 1011.1 hPa North 14.8 km/h 6.3 km/h 88 % 0 mm
01:19 12.8 °C 11.1 °C 1011.1 hPa North 14.8 km/h 6.8 km/h 89 % 0 mm
01:24 12.8 °C 11 °C 1011.1 hPa North 11.1 km/h 6.8 km/h 89 % 0 mm
01:29 12.8 °C 11 °C 1011.1 hPa North 13 km/h 6 km/h 89 % 0 mm
01:34 12.7 °C 10.9 °C 1010.7 hPa North 18.5 km/h 7.7 km/h 89 % 0 mm
01:39 12.7 °C 10.9 °C 1010.7 hPa North 11.1 km/h 6.3 km/h 89 % 0 mm
01:44 12.7 °C 10.9 °C 1010.7 hPa North 9.3 km/h 7.6 km/h 89 % 0 mm
01:49 12.7 °C 10.9 °C 1010.4 hPa North 11.1 km/h 4 km/h 89 % 0 mm
01:54 12.6 °C 10.8 °C 1010.4 hPa North 16.7 km/h 6.8 km/h 89 % 0 mm
01:59 12.6 °C 10.8 °C 1010.4 hPa North 11.1 km/h 6.6 km/h 89 % 0 mm
02:04 12.5 °C 10.7 °C 1010.4 hPa North 12.9 km/h 6.6 km/h 89 % 0 mm
02:09 12.4 °C 10.8 °C 1010.4 hPa North 9.3 km/h 6.1 km/h 90 % 0 mm
02:14 12.4 °C 10.8 °C 1010.4 hPa NNW 7.4 km/h 5 km/h 90 % 0 mm
02:19 12.4 °C 10.8 °C 1010.4 hPa NNW 14.5 km/h 7.2 km/h 90 % 0 mm
02:24 12.4 °C 10.8 °C 1010.4 hPa NNW 12.9 km/h 8.9 km/h 90 % 0 mm
02:29 12.3 °C 10.7 °C 1010.4 hPa North 9.7 km/h 4 km/h 90 % 0 mm
02:34 12.3 °C 10.7 °C 1010.4 hPa NNW 9.3 km/h 6 km/h 90 % 0 mm
02:39 12.2 °C 10.6 °C 1010.4 hPa NNW 14.8 km/h 6.1 km/h 90 % 0 mm
02:44 12.1 °C 10.5 °C 1010.4 hPa NNW 7.4 km/h 4.7 km/h 90 % 0 mm
02:49 12.1 °C 10.5 °C 1010.4 hPa NNW 11.1 km/h 7.1 km/h 90 % 0 mm
02:54 12.1 °C 10.5 °C 1010.4 hPa NNW 9.3 km/h 6.6 km/h 90 % 0 mm
02:59 12.1 °C 10.7 °C 1010.4 hPa NNW 9.3 km/h 6.4 km/h 91 % 0 mm
03:04 12.2 °C 10.7 °C 1010.7 hPa North 7.4 km/h 5.1 km/h 91 % 0 mm
03:09 12.2 °C 10.7 °C 1010.7 hPa North 16.7 km/h 7.4 km/h 91 % 0 mm
03:14 12.2 °C 10.7 °C 1010.4 hPa North 13 km/h 9.2 km/h 91 % 0 mm
03:19 12.2 °C 10.7 °C 1010.4 hPa North 11.1 km/h 8.5 km/h 91 % 0 mm
03:24 12.2 °C 10.6 °C 1010.4 hPa North 16.7 km/h 7.4 km/h 90 % 0 mm
03:29 12.2 °C 10.7 °C 1010.4 hPa North 13 km/h 9 km/h 91 % 0 mm
03:34 12.2 °C 10.7 °C 1010.4 hPa North 11.1 km/h 7.7 km/h 91 % 0 mm
03:39 12.2 °C 10.7 °C 1010.4 hPa North 11.1 km/h 5.6 km/h 91 % 0 mm
03:44 12.2 °C 10.7 °C 1010.4 hPa North 8 km/h 7.2 km/h 91 % 0 mm
03:49 12.2 °C 10.7 °C 1010.4 hPa North 9.3 km/h 5.1 km/h 91 % 0 mm
03:54 12.2 °C 10.7 °C 1010 hPa North 7.4 km/h 4 km/h 91 % 0 mm
03:59 12.2 °C 10.7 °C 1010.4 hPa North 9.3 km/h 4.3 km/h 91 % 0 mm
04:04 12.1 °C 10.7 °C 1010 hPa North 12.9 km/h 6.4 km/h 91 % 0 mm
04:09 12.1 °C 10.7 °C 1010.4 hPa North 11.3 km/h 10.3 km/h 91 % 0 mm
04:14 12.1 °C 10.7 °C 1010.4 hPa North 16.7 km/h 6.4 km/h 91 % 0 mm
04:19 12.1 °C 10.6 °C 1010.4 hPa North 9.7 km/h 6.9 km/h 91 % 0 mm
04:24 12.1 °C 10.6 °C 1010.4 hPa North 11.1 km/h 6.9 km/h 91 % 0 mm
04:29 12 °C 10.7 °C 1010.4 hPa North 11.3 km/h 7.6 km/h 92 % 0 mm
04:34 12.1 °C 10.8 °C 1010.4 hPa North 13 km/h 6.3 km/h 92 % 0 mm
04:39 12.1 °C 10.8 °C 1010.4 hPa North 16.7 km/h 11.1 km/h 92 % 0 mm
04:44 12.1 °C 10.8 °C 1010.4 hPa North 9.3 km/h 5.5 km/h 92 % 0 mm
04:49 12.1 °C 10.8 °C 1010.4 hPa North 11.1 km/h 4.7 km/h 92 % 0 mm
04:54 12.1 °C 10.8 °C 1010.4 hPa North 7.4 km/h 4 km/h 92 % 0 mm
04:59 12.1 °C 10.8 °C 1010.4 hPa North 9.7 km/h 6 km/h 92 % 0 mm
05:04 12.1 °C 10.8 °C 1010.4 hPa North 14.8 km/h 8 km/h 92 % 0 mm
05:09 12.1 °C 10.8 °C 1010.4 hPa North 11.1 km/h 5.5 km/h 92 % 0 mm
05:14 12.1 °C 10.8 °C 1010.4 hPa North 11.3 km/h 6.8 km/h 92 % 0 mm
05:19 12.1 °C 11 °C 1010.4 hPa North 7.4 km/h 7.1 km/h 93 % 0 mm
05:24 12.1 °C 11 °C 1010.4 hPa North 9.3 km/h 6.9 km/h 93 % 0 mm
05:29 12.1 °C 11 °C 1010.4 hPa North 11.1 km/h 8.5 km/h 93 % 0 mm
05:34 12.1 °C 10.9 °C 1010.4 hPa North 11.3 km/h 6.8 km/h 93 % 0 mm
05:39 12.1 °C 10.9 °C 1010.4 hPa North 11.3 km/h 8.2 km/h 93 % 0 mm
05:44 12.1 °C 10.9 °C 1010.4 hPa North 5.6 km/h 3.1 km/h 93 % 0.2 mm
05:49 12.1 °C 10.9 °C 1010.4 hPa North 7.4 km/h 4.8 km/h 93 % 0.2 mm
05:54 12.1 °C 11 °C 1010.4 hPa North 16.1 km/h 9.3 km/h 93 % 0.2 mm
05:59 12.1 °C 10.9 °C 1010.4 hPa North 11.1 km/h 6.8 km/h 93 % 0.41 mm
06:04 12.1 °C 11.2 °C 1010.4 hPa North 11.3 km/h 8.9 km/h 94 % 0.41 mm
06:09 12.1 °C 11.1 °C 1010.4 hPa North 14.8 km/h 6.8 km/h 94 % 0.41 mm
06:14 12.1 °C 11.1 °C 1010.4 hPa North 9.3 km/h 6.8 km/h 94 % 0.41 mm
06:19 12.1 °C 11.1 °C 1010.4 hPa North 13 km/h 7.1 km/h 94 % 0.41 mm
06:24 12 °C 11.1 °C 1010.4 hPa North 11.3 km/h 10.3 km/h 94 % 0.41 mm
06:29 12 °C 11.1 °C 1010.4 hPa North 9.3 km/h 6.8 km/h 94 % 0.41 mm
06:34 12 °C 11.1 °C 1010.4 hPa North 11.1 km/h 8.4 km/h 94 % 0.41 mm
06:39 11.9 °C 11 °C 1010.7 hPa North 5.6 km/h 4.8 km/h 94 % 0.41 mm
06:44 11.9 °C 11 °C 1010.7 hPa North 9.3 km/h 6.1 km/h 94 % 0.2 mm
06:49 11.9 °C 10.9 °C 1010.7 hPa North 9.3 km/h 4.5 km/h 94 % 0.2 mm
06:54 11.9 °C 10.9 °C 1010.7 hPa North 13 km/h 9.2 km/h 94 % 0.2 mm
06:59 11.9 °C 11 °C 1010.7 hPa North 11.1 km/h 7.1 km/h 94 % 0 mm
07:04 11.9 °C 10.9 °C 1010.7 hPa North 13 km/h 7.6 km/h 94 % 0 mm
07:09 11.9 °C 10.9 °C 1011.1 hPa North 11.1 km/h 8.9 km/h 94 % 0 mm
07:14 11.9 °C 10.9 °C 1011.1 hPa North 11.1 km/h 6.9 km/h 94 % 0 mm
07:19 11.9 °C 10.9 °C 1011.1 hPa North 9.3 km/h 5.6 km/h 94 % 0 mm
07:24 11.9 °C 10.9 °C 1011.1 hPa North 11.3 km/h 7.7 km/h 94 % 0 mm
07:29 11.9 °C 10.9 °C 1011.1 hPa North 11.1 km/h 6.6 km/h 94 % 0 mm
07:33 11.9 °C 11 °C 1011.4 hPa North 13 km/h 10.6 km/h 94 % 0 mm
07:49 12.1 °C 11.1 °C 1011.7 hPa North 13 km/h 13 km/h 94 % 0 mm
07:54 12 °C 11.1 °C 1011.7 hPa North 13 km/h 7.6 km/h 94 % 0 mm
07:59 12 °C 11.1 °C 1011.7 hPa North 11.1 km/h 9.5 km/h 94 % 0 mm
08:04 12 °C 11.1 °C 1011.7 hPa North 11.1 km/h 7.9 km/h 94 % 0 mm
08:09 12 °C 11.1 °C 1011.7 hPa North 16.7 km/h 8 km/h 94 % 0 mm
08:14 12 °C 11.1 °C 1011.7 hPa North 8 km/h 4.5 km/h 94 % 0 mm
08:19 12 °C 11.1 °C 1011.7 hPa North 8 km/h 5 km/h 94 % 0 mm
08:24 12 °C 10.9 °C 1011.7 hPa North 11.1 km/h 6.6 km/h 93 % 0 mm
08:29 12 °C 10.9 °C 1011.7 hPa North 9.7 km/h 6.3 km/h 93 % 0 mm
08:34 12 °C 10.9 °C 1011.7 hPa North 9.3 km/h 7.4 km/h 93 % 0 mm
08:39 12.1 °C 10.9 °C 1011.7 hPa North 11.1 km/h 8.9 km/h 93 % 0 mm
08:44 12.1 °C 11 °C 1011.7 hPa North 7.4 km/h 7.4 km/h 93 % 0 mm
08:49 12.2 °C 11.1 °C 1011.7 hPa North 13 km/h 6.9 km/h 93 % 0 mm
08:54 12.2 °C 11.3 °C 1011.7 hPa North 13 km/h 9.8 km/h 94 % 0 mm
08:59 12.3 °C 11.3 °C 1011.7 hPa North 14.8 km/h 8 km/h 94 % 0 mm
09:04 12.4 °C 11.4 °C 1011.7 hPa North 13 km/h 7.6 km/h 94 % 0 mm
09:09 12.5 °C 11.6 °C 1012.1 hPa North 18.5 km/h 6.9 km/h 94 % 0 mm
09:14 12.4 °C 11.3 °C 1012.1 hPa North 14.8 km/h 10.5 km/h 93 % 0 mm
09:19 12.4 °C 11.3 °C 1012.1 hPa North 16.7 km/h 6 km/h 93 % 0 mm
09:24 12.4 °C 11.3 °C 1012.1 hPa North 11.1 km/h 6.1 km/h 93 % 0 mm
09:29 12.5 °C 11.4 °C 1012.1 hPa NNW 13 km/h 7.7 km/h 93 % 0 mm
09:34 12.6 °C 11.4 °C 1012.1 hPa NNW 14.8 km/h 9.8 km/h 93 % 0 mm
09:39 12.7 °C 11.6 °C 1012.1 hPa NNW 13 km/h 6.4 km/h 93 % 0 mm
09:44 12.7 °C 11.4 °C 1012.1 hPa North 14.8 km/h 9 km/h 92 % 0 mm
09:49 12.7 °C 11.4 °C 1012.1 hPa North 16.7 km/h 9.8 km/h 92 % 0 mm
09:54 12.9 °C 11.8 °C 1012.1 hPa North 13 km/h 6.4 km/h 93 % 0 mm
09:59 13.1 °C 12 °C 1012.1 hPa North 14.8 km/h 11.9 km/h 93 % 0 mm
10:04 12.9 °C 11.7 °C 1012.4 hPa North 18.5 km/h 10.1 km/h 92 % 0 mm
10:09 12.9 °C 11.7 °C 1012.4 hPa North 12.9 km/h 7.2 km/h 92 % 0 mm
10:14 12.9 °C 11.7 °C 1012.4 hPa North 16.7 km/h 12.1 km/h 92 % 0 mm
10:19 13.2 °C 12.1 °C 1012.4 hPa North 13 km/h 4.8 km/h 93 % 0 mm
10:24 13.2 °C 11.9 °C 1012.1 hPa North 14.8 km/h 6.4 km/h 92 % 0 mm
10:29 13.3 °C 11.8 °C 1012.1 hPa North 14.8 km/h 8 km/h 91 % 0 mm
10:34 13.3 °C 11.9 °C 1012.4 hPa North 18.5 km/h 8.5 km/h 91 % 0 mm
10:39 13.3 °C 11.7 °C 1012.4 hPa North 18.5 km/h 7.7 km/h 90 % 0 mm
10:44 13.2 °C 11.6 °C 1012.4 hPa NNW 13 km/h 7.9 km/h 90 % 0 mm
10:49 13.3 °C 11.7 °C 1012.4 hPa North 20.4 km/h 11.4 km/h 90 % 0 mm
10:54 13.4 °C 11.8 °C 1012.1 hPa North 9.7 km/h 8.7 km/h 90 % 0 mm
10:59 13.6 °C 12 °C 1012.1 hPa North 14.8 km/h 11.9 km/h 90 % 0 mm
11:04 13.8 °C 12.5 °C 1012.1 hPa North 18.5 km/h 13.5 km/h 92 % 0 mm
11:09 14.1 °C 12.5 °C 1012.1 hPa North 14.8 km/h 13.4 km/h 90 % 0 mm
11:14 14.4 °C 12.4 °C 1012.1 hPa North 17.7 km/h 10.9 km/h 88 % 0 mm
11:19 14.6 °C 12.4 °C 1012.1 hPa North 16.7 km/h 12.1 km/h 87 % 0 mm
11:24 14.6 °C 12.1 °C 1012.1 hPa North 24.1 km/h 17.2 km/h 85 % 0 mm
11:29 14.6 °C 12.1 °C 1012.1 hPa North 18.5 km/h 9.2 km/h 85 % 0 mm
11:34 14.4 °C 12.1 °C 1012.1 hPa NNE 16.1 km/h 12.7 km/h 86 % 0 mm
11:39 14.4 °C 11.9 °C 1012.1 hPa NNE 16.7 km/h 10 km/h 85 % 0 mm
11:44 14.4 °C 11.9 °C 1012.1 hPa NNW 16.7 km/h 7.6 km/h 85 % 0 mm
11:49 14.6 °C 11.9 °C 1012.1 hPa NNW 18.5 km/h 12.6 km/h 84 % 0 mm
11:54 14.8 °C 11.7 °C 1012.1 hPa North 13 km/h 9 km/h 82 % 0 mm
11:59 14.7 °C 11.5 °C 1011.7 hPa NNW 16.7 km/h 13.7 km/h 81 % 0 mm
12:04 14.8 °C 11.7 °C 1011.7 hPa North 18.5 km/h 12.7 km/h 82 % 0 mm
12:09 14.8 °C 11.9 °C 1011.7 hPa North 11.1 km/h 5.5 km/h 83 % 0 mm
12:14 14.6 °C 11.8 °C 1011.7 hPa North 22.2 km/h 15.9 km/h 83 % 0 mm
12:19 14.3 °C 12.2 °C 1011.7 hPa NNE 18.5 km/h 15.4 km/h 87 % 0 mm
12:24 14.3 °C 12.4 °C 1011.4 hPa North 20.4 km/h 14.8 km/h 88 % 0 mm
12:29 14.7 °C 12.7 °C 1011.4 hPa NNE 14.8 km/h 12.4 km/h 88 % 0 mm
12:34 14.8 °C 12.4 °C 1011.4 hPa North 18.5 km/h 10.8 km/h 86 % 0 mm
12:39 14.6 °C 12.3 °C 1011.4 hPa NW 16.7 km/h 11.1 km/h 86 % 0 mm
12:44 14.3 °C 12 °C 1011.4 hPa NNW 18.5 km/h 12.6 km/h 86 % 0 mm
12:49 14.1 °C 11.8 °C 1011.4 hPa North 20.4 km/h 14.6 km/h 86 % 0 mm
12:54 14.3 °C 12.2 °C 1011.4 hPa NNW 14.8 km/h 11.6 km/h 87 % 0 mm
12:59 14.8 °C 12.4 °C 1011.4 hPa NNW 17.7 km/h 11.4 km/h 86 % 0 mm
13:04 15.1 °C 12.2 °C 1011.1 hPa NNW 20.4 km/h 15.9 km/h 83 % 0 mm
13:09 15.3 °C 12.4 °C 1011.1 hPa NNW 18.5 km/h 13.8 km/h 83 % 0 mm
13:14 15.4 °C 12.2 °C 1011.1 hPa North 27.8 km/h 21.2 km/h 81 % 0 mm
13:19 15.3 °C 12.2 °C 1011.1 hPa North 22.2 km/h 13.4 km/h 82 % 0 mm
13:24 15.2 °C 12.3 °C 1011.1 hPa North 18.5 km/h 10.5 km/h 83 % 0 mm
13:29 14.9 °C 12.2 °C 1011.1 hPa NNE 18.5 km/h 15.9 km/h 84 % 0 mm
13:34 15.1 °C 12.8 °C 1010.7 hPa NNE 11.1 km/h 10.1 km/h 86 % 0 mm
13:39 15.4 °C 12.2 °C 1010.7 hPa North 18.5 km/h 13.8 km/h 81 % 0 mm
13:44 15.8 °C 12.4 °C 1010.7 hPa NNE 18.5 km/h 11.1 km/h 80 % 0 mm
13:49 15.8 °C 11.8 °C 1010.7 hPa NNE 24.1 km/h 14.6 km/h 77 % 0 mm
13:54 15.8 °C 11.8 °C 1010.7 hPa North 18.5 km/h 15.6 km/h 77 % 0 mm
13:59 15.8 °C 11.6 °C 1010.7 hPa North 18.5 km/h 10.9 km/h 76 % 0 mm
14:04 15.9 °C 11.5 °C 1010.7 hPa North 18.5 km/h 11.7 km/h 75 % 0 mm
14:09 15.9 °C 11.7 °C 1010.7 hPa North 12.9 km/h 11.6 km/h 76 % 0 mm
14:14 15.7 °C 11.7 °C 1010.7 hPa NNW 13 km/h 11.4 km/h 77 % 0 mm
14:19 15.1 °C 11.7 °C 1010.7 hPa NNW 9.7 km/h 8.4 km/h 80 % 0.41 mm
14:24 14.9 °C 12 °C 1010.7 hPa NNW 18.5 km/h 9.3 km/h 83 % 0.41 mm
14:29 15.1 °C 12.1 °C 1010.7 hPa NW 22.2 km/h 15.1 km/h 82 % 0.41 mm
14:34 15.1 °C 11.9 °C 1010.7 hPa NW 19.3 km/h 14.6 km/h 81 % 0.41 mm
14:39 15.2 °C 12.2 °C 1010.7 hPa North 16.7 km/h 9.7 km/h 82 % 0.41 mm
14:44 15.5 °C 12.3 °C 1010.4 hPa North 14.8 km/h 7.6 km/h 81 % 0.41 mm
14:49 16.1 °C 12.4 °C 1010.4 hPa North 20.4 km/h 14.2 km/h 79 % 0.41 mm
14:54 16.1 °C 12.1 °C 1010.4 hPa NNW 18.5 km/h 15.6 km/h 77 % 0.41 mm
14:59 16.1 °C 12.4 °C 1010.4 hPa NNW 22.2 km/h 14.6 km/h 79 % 0.41 mm
15:04 15.9 °C 12.1 °C 1010.4 hPa NW 22.2 km/h 15 km/h 78 % 0.41 mm
15:09 15.9 °C 12.1 °C 1010 hPa NNW 14.8 km/h 11.4 km/h 78 % 0.41 mm
15:14 16.2 °C 12.2 °C 1010 hPa NNW 14.8 km/h 8.9 km/h 77 % 0.41 mm
15:19 16.3 °C 12.2 °C 1010 hPa NW 24.1 km/h 16.4 km/h 77 % 0 mm
15:24 16.2 °C 12.6 °C 1010 hPa NNW 18.5 km/h 9.8 km/h 79 % 0 mm
15:29 16.3 °C 12.4 °C 1010 hPa North 18.5 km/h 14.2 km/h 78 % 0 mm
15:34 16.2 °C 12.2 °C 1010 hPa NNW 18.5 km/h 11.1 km/h 77 % 0 mm
15:39 16.2 °C 12.2 °C 1009.7 hPa NNW 14.8 km/h 10 km/h 77 % 0 mm
15:44 16.3 °C 12.4 °C 1009.7 hPa NNW 12.9 km/h 10.8 km/h 78 % 0 mm
15:49 16.3 °C 12.5 °C 1009.7 hPa NNW 11.1 km/h 5.6 km/h 78 % 0 mm
15:54 16.3 °C 12.2 °C 1009.7 hPa North 14.8 km/h 10.3 km/h 77 % 0 mm
15:59 16.4 °C 12.3 °C 1009.7 hPa NW 20.4 km/h 14.3 km/h 77 % 0 mm
16:04 16.7 °C 12 °C 1009.7 hPa NNW 20.4 km/h 8.4 km/h 74 % 0 mm
16:09 16.7 °C 12 °C 1009.7 hPa NNW 31.5 km/h 17.2 km/h 74 % 0 mm
16:14 16.4 °C 11.9 °C 1009.7 hPa NW 20.9 km/h 19 km/h 75 % 0 mm
16:19 16.2 °C 11.9 °C 1009.7 hPa NW 20.4 km/h 15.1 km/h 76 % 0 mm
16:24 16.4 °C 12.2 °C 1009.7 hPa WNW 19.3 km/h 20.4 km/h 76 % 0 mm
16:29 16.3 °C 12.1 °C 1009.7 hPa NW 24.1 km/h 12.4 km/h 76 % 0 mm
16:34 16.5 °C 12.3 °C 1009.7 hPa WNW 14.8 km/h 11.6 km/h 76 % 0 mm
16:39 16.4 °C 12 °C 1009.7 hPa WNW 19.3 km/h 13.7 km/h 75 % 0 mm
16:44 16.4 °C 12 °C 1009.4 hPa NW 19.3 km/h 12.7 km/h 75 % 0 mm
16:49 16.4 °C 11.9 °C 1009.7 hPa NW 22.2 km/h 14.8 km/h 75 % 0 mm
16:54 16.4 °C 11.9 °C 1009.4 hPa NW 17.7 km/h 13.4 km/h 75 % 0 mm
16:59 16.4 °C 12 °C 1009.7 hPa WNW 24.1 km/h 22.2 km/h 75 % 0 mm
17:04 16.4 °C 11.9 °C 1009.7 hPa WNW 20.9 km/h 17.5 km/h 75 % 0 mm
17:09 16.2 °C 11.7 °C 1009.7 hPa NW 20.4 km/h 13.4 km/h 75 % 0 mm
17:14 16.3 °C 12.1 °C 1009.7 hPa WNW 19.3 km/h 16.7 km/h 76 % 0 mm
17:19 16.2 °C 12 °C 1009.4 hPa NW 16.1 km/h 9.7 km/h 76 % 0 mm
17:24 16.2 °C 11.8 °C 1009.4 hPa NW 20.4 km/h 22.4 km/h 75 % 0 mm
17:29 16.3 °C 11.9 °C 1009.4 hPa WNW 18.5 km/h 11.1 km/h 75 % 0 mm
17:34 16.3 °C 11.6 °C 1009.7 hPa NW 18.5 km/h 13 km/h 74 % 0 mm
17:39 16.1 °C 11.7 °C 1009.7 hPa NW 18.5 km/h 12.6 km/h 75 % 0 mm
17:44 16.1 °C 11.8 °C 1009.7 hPa NW 18.5 km/h 13.2 km/h 76 % 0 mm
17:49 15.9 °C 11.7 °C 1009.7 hPa NW 20.4 km/h 14.6 km/h 76 % 0 mm
17:54 15.9 °C 11.8 °C 1009.7 hPa NW 16.7 km/h 9.8 km/h 77 % 0 mm
17:59 15.9 °C 11.8 °C 1009.7 hPa NW 20.4 km/h 15.1 km/h 77 % 0 mm
18:04 15.9 °C 11.7 °C 1009.7 hPa NW 14.8 km/h 12.9 km/h 76 % 0 mm
18:09 15.9 °C 11.8 °C 1009.7 hPa NW 22.2 km/h 15.1 km/h 77 % 0 mm
18:14 15.7 °C 11.7 °C 1009.7 hPa NW 18.5 km/h 9.8 km/h 77 % 0 mm
18:19 15.7 °C 11.7 °C 1009.7 hPa NW 16.7 km/h 7.2 km/h 77 % 0 mm
18:24 15.7 °C 11.8 °C 1009.7 hPa NW 18.5 km/h 6.3 km/h 78 % 0 mm
18:29 15.7 °C 11.8 °C 1009.7 hPa NW 20.4 km/h 13.5 km/h 78 % 0 mm
18:34 15.6 °C 11.7 °C 1009.7 hPa NW 19.3 km/h 16.1 km/h 78 % 0 mm
18:39 15.3 °C 11.8 °C 1010 hPa WNW 18.5 km/h 11.7 km/h 80 % 0 mm
18:44 15.1 °C 11.9 °C 1009.7 hPa North 20.4 km/h 14.8 km/h 81 % 0 mm
18:49 15 °C 11.8 °C 1009.7 hPa WNW 18.5 km/h 11.1 km/h 81 % 0 mm
18:54 14.9 °C 11.7 °C 1010 hPa NW 17.7 km/h 11.3 km/h 81 % 0 mm
18:59 14.9 °C 11.8 °C 1010 hPa NW 14.8 km/h 8.4 km/h 82 % 0 mm
19:04 14.9 °C 11.7 °C 1010.4 hPa NW 18.5 km/h 13.8 km/h 81 % 0 mm
19:09 14.7 °C 11.5 °C 1010.4 hPa NW 25.9 km/h 20.1 km/h 81 % 0 mm
19:14 14.6 °C 11.6 °C 1010.4 hPa NW 18.5 km/h 15.3 km/h 82 % 0 mm
19:19 14.6 °C 11.5 °C 1010.4 hPa WNW 24.1 km/h 12.6 km/h 82 % 0 mm
19:24 14.5 °C 11.4 °C 1010.4 hPa NW 18.5 km/h 14.5 km/h 82 % 0 mm
19:29 14.4 °C 11.4 °C 1010.7 hPa WNW 25.7 km/h 17.5 km/h 82 % 0 mm
19:34 14.3 °C 11.3 °C 1010.7 hPa North 14.8 km/h 9 km/h 82 % 0 mm
19:39 14.2 °C 11.2 °C 1010.7 hPa NW 12.9 km/h 11.3 km/h 82 % 0 mm
19:44 14 °C 11.3 °C 1010.7 hPa NW 16.7 km/h 12.9 km/h 84 % 0 mm
19:49 13.8 °C 11.3 °C 1010.7 hPa WNW 22.2 km/h 12.9 km/h 85 % 0 mm
19:54 13.6 °C 11.3 °C 1011.1 hPa NW 13 km/h 10.8 km/h 86 % 0 mm
19:59 13.4 °C 11.3 °C 1011.1 hPa North 14.8 km/h 7.7 km/h 87 % 0 mm
20:04 13.3 °C 11.4 °C 1011.1 hPa NW 9.7 km/h 6.6 km/h 88 % 0 mm
20:09 13.2 °C 11.4 °C 1011.1 hPa NW 16.7 km/h 11.4 km/h 89 % 0 mm
20:14 13.2 °C 11.4 °C 1011.1 hPa NW 13 km/h 7.6 km/h 89 % 0 mm
20:19 13.2 °C 11.4 °C 1011.1 hPa NW 16.7 km/h 11.9 km/h 89 % 0 mm
20:24 13.2 °C 11.4 °C 1011.1 hPa North 9.3 km/h 10.1 km/h 89 % 0 mm
20:29 13.1 °C 11.4 °C 1011.1 hPa North 13 km/h 5.3 km/h 90 % 0 mm
20:34 13 °C 11.4 °C 1011.1 hPa NW 7.4 km/h 4.7 km/h 90 % 0.2 mm
20:39 13 °C 11.4 °C 1011.1 hPa NW 8 km/h 6.4 km/h 90 % 0.41 mm
20:44 12.9 °C 11.5 °C 1011.1 hPa NW 11.1 km/h 5 km/h 91 % 0.41 mm
20:49 12.9 °C 11.5 °C 1011.1 hPa NW 9.7 km/h 7.2 km/h 91 % 0.41 mm
20:54 12.9 °C 11.4 °C 1011.4 hPa North 9.7 km/h 6.6 km/h 91 % 0.41 mm
20:59 12.8 °C 11.4 °C 1011.4 hPa NW 9.3 km/h 6.6 km/h 91 % 0.41 mm
21:04 12.8 °C 11.3 °C 1011.4 hPa NNW 9.3 km/h 8.2 km/h 91 % 0.41 mm
21:09 12.7 °C 11.4 °C 1011.4 hPa NNW 14.8 km/h 7.4 km/h 92 % 0.41 mm
21:14 12.6 °C 11.3 °C 1011.4 hPa NNW 11.1 km/h 6.8 km/h 92 % 0.41 mm
21:19 12.6 °C 11.3 °C 1011.4 hPa NNW 11.1 km/h 9.3 km/h 92 % 0.41 mm
21:24 12.6 °C 11.3 °C 1011.4 hPa NNW 7.4 km/h 6.6 km/h 92 % 0.41 mm
21:29 12.6 °C 11.3 °C 1011.4 hPa NNW 14.8 km/h 7.4 km/h 92 % 0.41 mm
21:34 12.6 °C 11.3 °C 1011.7 hPa NNW 14.8 km/h 8.4 km/h 92 % 0.2 mm
21:39 12.6 °C 11.3 °C 1011.7 hPa NNW 7.4 km/h 5.1 km/h 92 % 0 mm
21:44 12.6 °C 11.3 °C 1011.7 hPa NNW 11.1 km/h 5.6 km/h 92 % 0 mm
21:49 12.6 °C 11.3 °C 1011.7 hPa NNW 4.8 km/h 3.9 km/h 92 % 0 mm
21:54 12.6 °C 11.3 °C 1011.7 hPa NNW 7.4 km/h 6 km/h 92 % 0 mm
21:59 12.6 °C 11.3 °C 1011.7 hPa NNW 5.6 km/h 4.7 km/h 92 % 0 mm
22:04 12.5 °C 11.2 °C 1011.7 hPa NNW 5.6 km/h 5.1 km/h 92 % 0 mm
22:09 12.5 °C 11.2 °C 1011.7 hPa North 8 km/h 5.1 km/h 92 % 0 mm
22:14 12.5 °C 11.4 °C 1011.7 hPa NNW 9.3 km/h 5.1 km/h 93 % 0 mm
22:19 12.5 °C 11.4 °C 1011.7 hPa NNW 9.3 km/h 9 km/h 93 % 0 mm
22:24 12.4 °C 11.3 °C 1011.7 hPa NNW 9.7 km/h 5.8 km/h 93 % 0 mm
22:29 12.4 °C 11.3 °C 1011.7 hPa NNW 9.7 km/h 7.9 km/h 93 % 0 mm
22:34 12.4 °C 11.3 °C 1011.7 hPa NNW 11.1 km/h 3.5 km/h 93 % 0 mm
22:39 12.4 °C 11.3 °C 1011.7 hPa North 5.6 km/h 3.7 km/h 93 % 0 mm
22:44 12.4 °C 11.3 °C 1011.7 hPa NNW 9.3 km/h 4.5 km/h 93 % 0 mm
22:49 12.4 °C 11.3 °C 1011.7 hPa NNW 6.4 km/h 3.7 km/h 93 % 0 mm
22:54 12.4 °C 11.3 °C 1011.7 hPa NNW 7.4 km/h 3.5 km/h 93 % 0 mm
22:59 12.4 °C 11.3 °C 1011.7 hPa NNW 3.7 km/h 0.8 km/h 93 % 0 mm
23:04 12.4 °C 11.3 °C 1011.7 hPa NNW 7.4 km/h 2.9 km/h 93 % 0 mm
23:09 12.4 °C 11.3 °C 1011.7 hPa NNW 7.4 km/h 6.4 km/h 93 % 0 mm
23:14 12.4 °C 11.3 °C 1011.7 hPa NNW 5.6 km/h 4.2 km/h 93 % 0 mm
23:19 12.4 °C 11.3 °C 1011.7 hPa NNW 9.3 km/h 5.1 km/h 93 % 0 mm
23:24 12.4 °C 11.3 °C 1011.7 hPa NNW 9.3 km/h 5.1 km/h 93 % 0 mm
23:29 12.4 °C 11.3 °C 1011.7 hPa NNW 11.1 km/h 8 km/h 93 % 0 mm
23:34 12.3 °C 11.2 °C 1011.7 hPa NNW 13 km/h 5.5 km/h 93 % 0 mm
23:39 12.2 °C 11.1 °C 1011.4 hPa NNW 14.8 km/h 8.2 km/h 93 % 0 mm
23:44 12.2 °C 11.1 °C 1011.4 hPa North 14.8 km/h 8.2 km/h 93 % 0 mm
23:49 12.1 °C 11 °C 1011.4 hPa NNW 7.4 km/h 6.1 km/h 93 % 0 mm
23:54 12.1 °C 11 °C 1011.7 hPa NNW 9.3 km/h 5.3 km/h 93 % 0 mm
23:59 12.1 °C 10.9 °C 1011.7 hPa NNW 13 km/h 10.9 km/h 93 % 0 mm
Ararat Weather
Compliments of Weather Underground - 2.25 mb
Click here to send mail.


ABOUT

Live weather data from Ararat, Victoria, Australia, 3377
Data uploaded from Cumulus every 5 minutes to Weather Underground.
This site then downloads the raw data for formatting and display.
Metric and imperial data can be displayed. Graphs and historical data available.
Includes Sun and Moon times and rain image live from BOM.

Check out Ararat Weather on Facebook, Twitter and Google +

Help support ongoing costs by checking out the ads





Follow @AraratWeather